User: anonymous   Login
Location: Unspecified
(0.0000°N, 0.0000°E)
Time: 18:24:25
(UTC+00:00)
Language:

PLEIADES HR1 - Orbit

View from above orbital plane
View from above orbital plane
View from above satellite
View from above satellite

Ground track
Ground track

The orbit data is extracted from the following two-line orbital elements,

1 38012U 11076F   17266.51232089  .00000001  00000-0  99416-5 0  9996
2 38012  98.1918 340.3410 0001471  72.7729 287.3633 14.58555164307190
Epoch (UTC): 23 September 2017 12:17:44
Eccentricity: 0.0001471
inclination: 98.1918°
perigee height: 697 km
apogee height: 699 km
right ascension of ascending node: 340.3410°
argument of perigee: 72.7729°
revolutions per day: 14.58555164
mean anomaly at epoch: 287.3633°
orbit number at epoch: 30719

The dashed part of the orbit path shows where the satellite is in the earth's shadow,  

DLR